Find Starlink 6301

NORAD ID: 56392 Int'l Des: 2023-061 Owner: SPXS Country: US Constellation: starlink operational
LEOCIRCULAR

当前视图

正在加载3D地球...

About Starlink 6301

Starlink 6301 (NORAD 56392) is a starlink constellation satellite (v1.5) launched May 4, 2023 by SPXS of US. It operates in LEO, CIRCULAR orbit with a mass of 305.00 kg.

关于 Starlink 6301

正在加载描述...

即将过境

Passes for default location (London). Set your location on the main map for personalized predictions.

高度历史

Loading altitude history...

两行轨道根数

1 56392U 23061U 26171.15710864 -.00000198 00000-0 23177-5 0 9990
2 56392 43.0044 328.5389 0001474 272.9697 87.0986 15.27573261172544
Epoch: Jun 20, 2026 • Age: 31 hours

当前状态

高度 482.3 km
速度 7.63 km/s
星下点 14.68°N, 101.08°W
发射日期 May 4, 2023
运行时间 3.1 years
类型 internet

技术详情

分类 Payload
质量 305.00 kg
干质量 290.00 kg
总质量 305.00 kg
长度 0.20 m
直径 2.80 m
跨度 9.00 m
形状 Box + pan
制造商 SPXS
平台类型 Starlink
阶段状态 In Orbit
所有者/国家 SPXS/US

Most Searched